AAL2955 MYNN-KMIA

Flight info

Callsign AAL2955
Flight time N/A
Altitude 24000
Route FREDY2 NICKO VIICE2
Aircraft CRJ9/M-SDFGIRWY/S

Departure

Time 2026-05-04 19:44
Airport Lynden Pindling International Airport (MYNN)

Arrival

Time N/A
Airport Miami International Airport (KMIA)
Time Latitude Longitude Altitude Speed Heading
2026-05-04 19:13 25.04930 -77.46743 21 ft 0 kts 144°
2026-05-04 19:38 25.04929 -77.46742 21 ft 0 kts 144°
2026-05-04 19:38 25.04929 -77.46741 21 ft 0 kts 142°
2026-05-04 19:38 25.04929 -77.46742 21 ft 0 kts 142°
2026-05-04 19:38 25.04929 -77.46741 21 ft 0 kts 142°
2026-05-04 19:39 25.04928 -77.46741 21 ft 0 kts 142°
2026-05-04 19:40 25.04955 -77.46715 21 ft 14 kts 340°
2026-05-04 19:40 25.04956 -77.46833 21 ft 23 kts 244°
2026-05-04 19:40 25.04938 -77.46877 23 ft 0 kts 246°
2026-05-04 19:40 25.04938 -77.46878 23 ft 0 kts 246°
2026-05-04 19:41 25.04931 -77.46894 22 ft 12 kts 246°
2026-05-04 19:41 25.04926 -77.47031 21 ft 29 kts 308°
2026-05-04 19:42 25.04984 -77.47093 23 ft 1 kts 317°
2026-05-04 19:42 25.05058 -77.47170 23 ft 28 kts 319°
2026-05-04 19:42 25.05113 -77.47227 20 ft 20 kts 315°
2026-05-04 19:42 25.05179 -77.47302 21 ft 20 kts 310°
2026-05-04 19:43 25.05215 -77.47443 21 ft 25 kts 248°
2026-05-04 19:43 25.05115 -77.47495 20 ft 12 kts 142°
2026-05-04 19:43 25.05081 -77.47456 19 ft 18 kts 133°
2026-05-04 19:43 25.04803 -77.47143 22 ft 97 kts 134°
2026-05-04 19:44 25.04162 -77.46427 19 ft 162 kts 135°
2026-05-04 19:44 25.03309 -77.45494 488 ft 183 kts 129°
2026-05-04 19:44 25.02432 -77.44427 1298 ft 189 kts 134°
2026-05-04 19:44 25.01465 -77.43333 1856 ft 215 kts 137°
2026-05-04 19:45 25.00265 -77.42065 1871 ft 258 kts 139°
2026-05-04 19:45 24.98906 -77.40753 2732 ft 252 kts 142°